Regional Weather Roundup
Issued by NWS Green Bay, WI

Home | Current Version | Previous Version | Text Only | Print | Product List | Glossary On
Versions: 1 2 3 4 5 6 7 8 9 10 11 12 13 14 15 16 17 18 19 20 21 22 23 24 25 26 27 28 29 30 31 32 33 34 35 36 37 38 39 40 41 42 43 44 45 46 47 48 49 50
000
ASUS43 KGRB 200110
RWRGRB

NORTH-CENTRAL AND NORTHEAST WISCONSIN REGIONAL WEATHER ROUNDUP
NATIONAL WEATHER SERVICE GREEN BAY WI
800 PM CDT FRI SEP 19 2014

WIZ005-009-010>012-018-019-200200-
NORTH CENTRAL WISCONSIN

CITY           SKY/WX    TMP DP  RH WIND       PRES   REMARKS
IRONWOOD       CLOUDY    64  57  77 SW10G16   29.65R
MANITOWISH WTR CLOUDY    64  55  75 S14       29.69F
ARBOR VITAE    MOCLDY    64  54  69 S20G25    29.69F
EAGLE RIVER    MOCLDY    64  51  62 SW8G18    29.72F
LAND O LAKES   MOCLDY    65  53  65 S14G25    29.71F
RHINELANDER    CLOUDY    64  53  67 S10       29.77F
PHILLIPS       CLOUDY    65  57  74 S12G20    29.70F
ANTIGO         CLOUDY    63  53  71 S12       29.81F
TOMAHAWK       CLOUDY    64  54  69 S5        29.77S
MERRILL        CLOUDY    66  55  68 S9        29.78F
$$

WIZ013-073-200200-
NORTHEAST WISCONSIN

CITY           SKY/WX    TMP DP  RH WIND       PRES   REMARKS
IRON MOUNTAIN  CLOUDY    66  52  60 S12G23    29.75F
MARINETTE      MOCLDY    64  52  63 SW12G22   29.81R
OCONTO         CLOUDY    64  55  71 S8        29.81R
$$

WIZ017-030-035>037-045-200200-
CENTRAL WISCONSIN

CITY           SKY/WX    TMP DP  RH WIND       PRES   REMARKS
MEDFORD        CLOUDY    65  55  70 S12       29.78S
WAUSAU         CLOUDY    67  53  61 S16       29.78F
MOSINEE        MOCLDY    66  55  68 SW10      29.84R
MARSHFIELD     CLOUDY    66  55  67 S13       29.80S
WISC RAPIDS    PTCLDY    67  53  61 SW10      29.84R
STEVENS POINT  PTCLDY    65  51  60 S9        29.83R
WAUPACA        PTCLDY    68  51  54 S10       29.81S
SHAWANO        MOCLDY    69  50  51 SW6       29.83R
CLINTONVILLE   PTCLDY    66  50  55 SW7       29.82R
$$

WIZ038-039-048-051-200200-
FOX VALLEY

CITY           SKY/WX    TMP DP  RH WIND       PRES   REMARKS
NWS GREEN BAY  MOCLDY    67  51  56 S15G22    29.82S
APPLETON       MOCLDY    66  48  52 S15G23    29.84S
OSHKOSH        PTCLDY    67  51  56 S14       29.84S
FOND DU LAC    PTCLDY    67  49  52 S16       29.86S
$$

WIZ022-050-052-200200-
EAST CENTRAL WISCONSIN

CITY           SKY/WX    TMP DP  RH WIND       PRES   REMARKS
STURGEON BAY   MOCLDY    61  52  72 S21       29.82F
MANITOWOC      PTCLDY    61  53  75 S13       29.87S
SHEBOYGAN      PTCLDY    62  51  67 S16       29.87F
$$

LMZ563-521-522-541>543-200200-
LAKESHORE

STATION/POSITION TIME  TEMP    WIND        PRES    VSBY  WAVE
                       AIR SEA DIR/SP/G                  HT/PER
                 (UTC) (F)     (DEG/KT/KT) (MB)    (MI)  (FT/S)
SHEBOYGAN LKSHOR 0100   61 54  190/ 26/ 29 1011.7F
KEWAUNEE LKSHORE 0100   61     190/ 20/ 29 1010.1R
TWO RIVERS CG    0000   57 61              1012.4   3 1/2  5
NORTHPORT PIER   0100   62     160/ 13/ 21 1009.5S
N MID LAKE BUOY  0100   62 58  200/ 27/ 33 1009.1F         9/ 8
CHAMBERS ISLAND  0100   63     160/  9/ 26 1009.1F
MENOMINEE LKSHOR 0100   62     190/ 11/ 21 1009.8R
$$


USA.gov is the U.S. government's official web portal to all federal, state and local government web resources and services.